Tiempo cada hora Abdulmambetovo

Hoy, 21 Octubre, Miércoles

Tiempo Temperatura Precipitaciones Viento Presión Humedad
00:00 +2°C° 0 mm 2 mps 722 mmHg 80%
01:00 +2°C° 0 mm 2 mps 722 mmHg 81%
02:00 +1°C° 0 mm 2 mps 722 mmHg 81%
03:00 +1°C° 0 mm 2 mps 723 mmHg 81%
04:00 +1°C° 0 mm 2 mps 723 mmHg 81%
05:00 +1°C° 0 mm 2 mps 722 mmHg 83%
06:00 +1°C° 0 mm 2 mps 722 mmHg 85%
07:00 -1°C° 0 mm 3 mps 722 mmHg 87%
08:00 +1°C° 0 mm 3 mps 722 mmHg 77%
09:00 +1°C° 0 mm 4 mps 722 mmHg 68%
10:00 +2°C° 0 mm 5 mps 722 mmHg 58%
11:00 +3°C° 0 mm 6 mps 722 mmHg 56%
12:00 +3°C° 0 mm 6 mps 721 mmHg 53%
13:00 +4°C° 0 mm 6 mps 721 mmHg 50%
14:00 +3°C° 0 mm 6 mps 721 mmHg 55%
15:00 +2°C° 0 mm 6 mps 721 mmHg 59%
16:00 +2°C° 0 mm 5 mps 721 mmHg 65%
17:00 +1°C° 0 mm 5 mps 721 mmHg 71%
18:00 0°C° 0 mm 5 mps 721 mmHg 77%
19:00 -1°C° 0 mm 4 mps 721 mmHg 83%
20:00 -1°C° 0.1 mm 4 mps 721 mmHg 82%
21:00 -2°C° 0.1 mm 4 mps 721 mmHg 82%
22:00 -2°C° 0.1 mm 4 mps 721 mmHg 81%
23:00 -2°C° 0 mm 4 mps 721 mmHg 82%

Mañana, 22 Octubre, Jueves

Tiempo Temperatura Precipitaciones Viento Presión Humedad
00:00 -3°C° 0 mm 4 mps 721 mmHg 83%
01:00 -3°C° 0 mm 4 mps 721 mmHg 83%
02:00 -5°C° 0 mm 5 mps 722 mmHg 80%
03:00 -5°C° 0 mm 5 mps 722 mmHg 77%
04:00 -6°C° 0 mm 5 mps 722 mmHg 73%
05:00 -6°C° 0 mm 5 mps 722 mmHg 75%
06:00 -6°C° 0 mm 5 mps 723 mmHg 76%
07:00 -6°C° 0 mm 5 mps 723 mmHg 77%
08:00 -5°C° 0 mm 6 mps 723 mmHg 69%
09:00 -4°C° 0 mm 6 mps 723 mmHg 62%
10:00 -3°C° 0 mm 7 mps 724 mmHg 55%
11:00 -3°C° 0 mm 7 mps 724 mmHg 55%
12:00 -3°C° 0 mm 7 mps 724 mmHg 54%
13:00 -2°C° 0 mm 7 mps 724 mmHg 54%
14:00 -3°C° 0 mm 7 mps 724 mmHg 57%
15:00 -3°C° 0 mm 7 mps 725 mmHg 60%
16:00 -4°C° 0 mm 6 mps 725 mmHg 63%
17:00 -4°C° 0 mm 6 mps 725 mmHg 68%
18:00 -5°C° 0 mm 5 mps 725 mmHg 73%
19:00 -5°C° 0 mm 4 mps 725 mmHg 79%
20:00 -5°C° 0 mm 4 mps 726 mmHg 79%
21:00 -5°C° 0 mm 4 mps 726 mmHg 80%
22:00 -5°C° 0 mm 4 mps 726 mmHg 81%
23:00 -5°C° 0 mm 4 mps 726 mmHg 81%

Pasado mañana, 23 Octubre, Viernes

Tiempo Temperatura Precipitaciones Viento Presión Humedad
00:00 -5°C° 0 mm 4 mps 726 mmHg 81%
01:00 -7°C° 0 mm 4 mps 726 mmHg 81%
02:00 -7°C° 0 mm 4 mps 726 mmHg 81%
03:00 -7°C° 0 mm 4 mps 726 mmHg 82%
04:00 -7°C° 0 mm 4 mps 727 mmHg 82%
05:00 -7°C° 0 mm 4 mps 727 mmHg 83%
06:00 -7°C° 0 mm 4 mps 727 mmHg 84%
07:00 -7°C° 0 mm 3 mps 727 mmHg 85%
08:00 -5°C° 0 mm 4 mps 728 mmHg 78%
09:00 -4°C° 0 mm 4 mps 728 mmHg 70%
10:00 -3°C° 0 mm 4 mps 728 mmHg 63%
11:00 -3°C° 0 mm 4 mps 728 mmHg 60%
12:00 -2°C° 0 mm 4 mps 728 mmHg 58%
13:00 0°C° 0 mm 3 mps 728 mmHg 55%
14:00 -1°C° 0 mm 3 mps 728 mmHg 58%
15:00 -1°C° 0 mm 3 mps 728 mmHg 61%
16:00 -1°C° 0 mm 3 mps 728 mmHg 64%
17:00 -2°C° 0 mm 3 mps 728 mmHg 68%
18:00 -3°C° 0 mm 2 mps 728 mmHg 73%
19:00 -3°C° 0 mm 2 mps 728 mmHg 77%
20:00 -3°C° 0 mm 2 mps 728 mmHg 77%
21:00 -3°C° 0 mm 2 mps 728 mmHg 77%
22:00 -2°C° 0 mm 3 mps 727 mmHg 76%
23:00 -2°C° 0.3 mm 3 mps 727 mmHg 83%

24 Octubre, Sábado

Tiempo Temperatura Precipitaciones Viento Presión Humedad
00:00 -2°C° 0.3 mm 3 mps 726 mmHg 89%
01:00 -3°C° 0.3 mm 4 mps 726 mmHg 95%
02:00 -3°C° 0.4 mm 4 mps 725 mmHg 96%
03:00 -2°C° 0.4 mm 4 mps 725 mmHg 96%
04:00 -2°C° 0.4 mm 4 mps 724 mmHg 97%
05:00 -1°C° 0.3 mm 4 mps 724 mmHg 97%
06:00 0°C° 0.3 mm 4 mps 723 mmHg 98%
07:00 0°C° 0.3 mm 4 mps 723 mmHg 98%
08:00 +1°C° 0.2 mm 4 mps 722 mmHg 97%
09:00 +3°C° 0.2 mm 4 mps 722 mmHg 97%
10:00 +2°C° 0.2 mm 5 mps 721 mmHg 96%
11:00 +4°C° 0.5 mm 4 mps 721 mmHg 96%
12:00 +4°C° 0.5 mm 4 mps 720 mmHg 96%
13:00 +4°C° 0.5 mm 4 mps 720 mmHg 95%
14:00 +4°C° 0.6 mm 4 mps 719 mmHg 95%
15:00 +5°C° 0.6 mm 4 mps 719 mmHg 95%
16:00 +5°C° 0.6 mm 4 mps 719 mmHg 95%
17:00 +5°C° 0.8 mm 4 mps 719 mmHg 94%
18:00 +5°C° 0.8 mm 5 mps 719 mmHg 94%
19:00 +6°C° 0.8 mm 5 mps 718 mmHg 93%
20:00 +6°C° 0.2 mm 5 mps 719 mmHg 92%
21:00 +6°C° 0.2 mm 5 mps 719 mmHg 91%
22:00 +6°C° 0.2 mm 5 mps 720 mmHg 90%
23:00 +6°C° 0 mm 5 mps 720 mmHg 90%

25 Octubre, Domingo

Tiempo Temperatura Precipitaciones Viento Presión Humedad
00:00 +6°C° 0 mm 5 mps 720 mmHg 90%
01:00 +6°C° 0 mm 4 mps 721 mmHg 90%
02:00 +6°C° 0 mm 4 mps 721 mmHg 91%
03:00 +6°C° 0 mm 4 mps 721 mmHg 92%
04:00 +6°C° 0 mm 4 mps 722 mmHg 93%
05:00 +5°C° 0 mm 4 mps 722 mmHg 93%
06:00 +5°C° 0 mm 3 mps 722 mmHg 93%
07:00 +5°C° 0 mm 3 mps 723 mmHg 93%
08:00 +5°C° 0 mm 3 mps 723 mmHg 88%
09:00 +6°C° 0 mm 4 mps 723 mmHg 82%
10:00 +7°C° 0 mm 4 mps 724 mmHg 77%
11:00 +7°C° 0 mm 4 mps 724 mmHg 71%
12:00 +8°C° 0 mm 4 mps 724 mmHg 66%
13:00 +8°C° 0 mm 4 mps 724 mmHg 61%
14:00 +9°C° 0 mm 3 mps 724 mmHg 64%
15:00 +8°C° 0 mm 3 mps 724 mmHg 68%
16:00 +8°C° 0 mm 2 mps 725 mmHg 72%
17:00 +7°C° 0 mm 2 mps 725 mmHg 75%
18:00 +6°C° 0 mm 2 mps 725 mmHg 79%
19:00 +7°C° 0 mm 1 mps 725 mmHg 82%
20:00 +7°C° 0 mm 1 mps 725 mmHg 83%
21:00 +7°C° 0 mm 1 mps 725 mmHg 85%
22:00 +6°C° 0 mm 1 mps 724 mmHg 86%
23:00 +7°C° 0.4 mm 1 mps 724 mmHg 89%

26 Octubre, Lunes

Tiempo Temperatura Precipitaciones Viento Presión Humedad
00:00 +7°C° 0.4 mm 1 mps 724 mmHg 92%
01:00 +7°C° 0.4 mm 1 mps 723 mmHg 95%
02:00 +6°C° 1 mm 2 mps 723 mmHg 96%
03:00 +6°C° 1 mm 2 mps 722 mmHg 97%
04:00 +6°C° 1 mm 2 mps 722 mmHg 99%
05:00 +7°C° 0.2 mm 2 mps 721 mmHg 98%
06:00 +8°C° 0.2 mm 3 mps 721 mmHg 97%
07:00 +9°C° 0.2 mm 3 mps 721 mmHg 96%
08:00 +8°C° 0 mm 4 mps 720 mmHg 93%
09:00 +9°C° 0 mm 5 mps 720 mmHg 89%
10:00 +10°C° 0 mm 6 mps 720 mmHg 85%
11:00 +11°C° 0 mm 6 mps 719 mmHg 77%
12:00 +13°C° 0 mm 6 mps 719 mmHg 70%
13:00 +13°C° 0 mm 6 mps 719 mmHg 63%
14:00 +13°C° 0.1 mm 6 mps 719 mmHg 67%
15:00 +12°C° 0.1 mm 5 mps 719 mmHg 72%
16:00 +10°C° 0.1 mm 5 mps 719 mmHg 76%
17:00 +10°C° 0 mm 4 mps 718 mmHg 80%
18:00 +10°C° 0 mm 4 mps 718 mmHg 84%
19:00 +9°C° 0 mm 3 mps 718 mmHg 88%
20:00 +9°C° 0 mm 3 mps 718 mmHg 89%
21:00 +9°C° 0 mm 2 mps 718 mmHg 90%
22:00 +9°C° 0 mm 2 mps 717 mmHg 91%
23:00 +8°C° 0.7 mm 2 mps 717 mmHg 92%

27 Octubre, Martes

Tiempo Temperatura Precipitaciones Viento Presión Humedad
00:00 +8°C° 0.7 mm 2 mps 717 mmHg 93%
01:00 +8°C° 0.7 mm 2 mps 717 mmHg 94%
02:00 +8°C° 1 mm 2 mps 716 mmHg 93%
03:00 +8°C° 1 mm 2 mps 716 mmHg 93%
04:00 +8°C° 1 mm 2 mps 716 mmHg 93%
05:00 +7°C° 0.3 mm 3 mps 716 mmHg 92%
06:00 +5°C° 0.3 mm 4 mps 716 mmHg 91%
07:00 +4°C° 0.3 mm 4 mps 716 mmHg 91%
08:00 +3°C° 0.3 mm 5 mps 716 mmHg 91%
09:00 +2°C° 0.3 mm 5 mps 716 mmHg 91%
10:00 +2°C° 0.3 mm 5 mps 716 mmHg 92%
11:00 +2°C° 0.2 mm 6 mps 716 mmHg 91%
12:00 +2°C° 0.2 mm 7 mps 717 mmHg 90%
13:00 +2°C° 0.2 mm 8 mps 717 mmHg 89%
14:00 +2°C° 1 mm 8 mps 717 mmHg 89%
15:00 +2°C° 1 mm 8 mps 718 mmHg 90%
16:00 +2°C° 1 mm 8 mps 718 mmHg 91%
17:00 +2°C° 0.6 mm 8 mps 719 mmHg 91%
18:00 +3°C° 0.6 mm 9 mps 719 mmHg 91%
19:00 +3°C° 0.6 mm 9 mps 720 mmHg 91%
20:00 +3°C° 1.1 mm 9 mps 721 mmHg 90%
21:00 +3°C° 1.1 mm 10 mps 722 mmHg 90%
22:00 +3°C° 1.1 mm 10 mps 722 mmHg 90%
23:00 +2°C° 0.2 mm 10 mps 723 mmHg 88%
Mostrar más

Necesitamos Su Consentimiento

Meteoprog y nuestros Proveedores de Servicios pueden almacenar y acceder a sus datos personales como cookies, identificadores de dispositivo u otras tecnologías similares de su dispositivo y procesar dichos datos para personalizar contenido y anuncios, además de ofrecer funciones de redes sociales y analizar el tráfico.

  • Almacenar y/o acceder a información en su dispositivo

    Se puede almacenar o acceder a cookies, identificadores de dispositivo u otra información de su dispositivo para los fines anteriormente indicados.

  • Anuncios y contenido personalizados, medición de anuncios y contenido, percepciones del público, y desarrollo de productos

    Los anuncios y el contenido pueden personalizarse en base a su perfil. Se pueden añadir más datos para personalizar mejor los anuncios y contenidos. Se puede medir el rendimiento de los anuncios y contenidos. Se puede obtener la percepción sobre el público que ha visto los anuncios y contenidos. Dichos datos pueden usarse para desarrollar o mejorar la experiencia del usuario, sistemas y software.

Al hacer clic en ‘Estoy De Acuerdo’ usted permitirá el uso de las cookies, identificadores de dispositivo, balizas web u otras tecnologías similares indicadas. Su configuración puede cambiarse desde el navegador de su dispositivo.

Para ciertos fines, los intereses legítimos pueden ser considerados por encima del consentimiento. Puede leer más sobre ello en nuestra Política de Privacidad y Cookies.